SAS79W ESSA-ENGM

Flight info

Callsign SAS79W
Flight time 0h 42m
Altitude 36000
Route ARS N623 IBGAX DCT EBURI N623 ESEBA
Aircraft A319/M-SDE3FGIJ1RWXY/LB1

Departure

Time 2026-05-05 18:05
Airport Stockholm-Arlanda Airport (ESSA)

Arrival

Time 2026-05-05 18:48
Airport Oslo-Gardermoen International Airport (ENGM)
Time Latitude Longitude Altitude Speed Heading
2026-05-05 17:46 59.65390 17.93791 112 ft 0 kts 256°
2026-05-05 17:56 59.65392 17.93813 112 ft 4 kts 254°
2026-05-05 17:56 59.65400 17.93864 110 ft 4 kts 251°
2026-05-05 17:57 59.65409 17.93914 112 ft 4 kts 255°
2026-05-05 17:57 59.65413 17.93965 114 ft 4 kts 282°
2026-05-05 17:57 59.65410 17.93983 114 ft 0 kts 301°
2026-05-05 17:59 59.65427 17.93939 112 ft 7 kts 325°
2026-05-05 17:59 59.65490 17.93907 113 ft 12 kts 346°
2026-05-05 17:59 59.65581 17.93847 114 ft 16 kts 317°
2026-05-05 18:00 59.65570 17.93604 111 ft 21 kts 256°
2026-05-05 18:00 59.65530 17.93284 110 ft 27 kts 256°
2026-05-05 18:00 59.65483 17.92943 112 ft 22 kts 251°
2026-05-05 18:00 59.65413 17.92652 111 ft 25 kts 233°
2026-05-05 18:01 59.65264 17.92423 111 ft 26 kts 202°
2026-05-05 18:01 59.65075 17.92338 112 ft 31 kts 191°
2026-05-05 18:01 59.64914 17.92280 112 ft 21 kts 190°
2026-05-05 18:01 59.64748 17.92219 112 ft 27 kts 191°
2026-05-05 18:02 59.64556 17.92149 112 ft 22 kts 190°
2026-05-05 18:02 59.64418 17.92100 114 ft 22 kts 190°
2026-05-05 18:02 59.64329 17.92044 112 ft 11 kts 240°
2026-05-05 18:02 59.64367 17.91924 112 ft 10 kts 334°
2026-05-05 18:03 59.64404 17.91867 111 ft 4 kts 295°
2026-05-05 18:03 59.64404 17.91865 111 ft 0 kts 293°
2026-05-05 18:03 59.64406 17.91855 111 ft 4 kts 290°
2026-05-05 18:03 59.64417 17.91754 109 ft 11 kts 281°
2026-05-05 18:04 59.64438 17.91597 108 ft 10 kts 313°
2026-05-05 18:04 59.64490 17.91598 109 ft 0 kts 12°
2026-05-05 18:04 59.64546 17.91620 111 ft 35 kts 10°
2026-05-05 18:04 59.65024 17.91793 105 ft 102 kts 10°
2026-05-05 18:05 59.65902 17.92114 215 ft 143 kts 11°
2026-05-05 18:05 59.66856 17.92452 871 ft 138 kts 10°
2026-05-05 18:05 59.67807 17.92781 1519 ft 138 kts
2026-05-05 18:05 59.68746 17.92440 2028 ft 144 kts 330°
2026-05-05 18:06 59.69503 17.90970 2360 ft 166 kts 297°
2026-05-05 18:06 59.69707 17.89451 2577 ft 183 kts 272°
2026-05-05 18:06 59.69466 17.85843 3428 ft 202 kts 262°
2026-05-05 18:06 59.69236 17.83102 4479 ft 202 kts 262°
2026-05-05 18:07 59.69009 17.80357 5466 ft 203 kts 262°
2026-05-05 18:07 59.68762 17.77593 6438 ft 206 kts 257°
2026-05-05 18:07 59.68380 17.74707 7004 ft 229 kts 259°
2026-05-05 18:07 59.68080 17.71446 7615 ft 251 kts 264°
2026-05-05 18:08 59.68193 17.67955 8507 ft 258 kts 279°
2026-05-05 18:08 59.68467 17.64477 9537 ft 261 kts 279°
2026-05-05 18:08 59.68761 17.60814 10315 ft 275 kts 279°
2026-05-05 18:08 59.69074 17.56931 10796 ft 294 kts 278°
2026-05-05 18:09 59.69396 17.52896 11635 ft 299 kts 278°
2026-05-05 18:09 59.69717 17.48854 12553 ft 302 kts 278°
2026-05-05 18:09 59.70043 17.44724 13488 ft 305 kts 277°
2026-05-05 18:09 59.70368 17.40565 14329 ft 306 kts 277°
2026-05-05 18:10 59.70693 17.36409 15252 ft 303 kts 276°
2026-05-05 18:10 59.71018 17.32255 16273 ft 299 kts 276°
2026-05-05 18:10 59.71329 17.28281 17295 ft 293 kts 275°
2026-05-05 18:10 59.71636 17.24323 18328 ft 289 kts 274°
2026-05-05 18:11 59.71938 17.20399 19104 ft 288 kts 274°
2026-05-05 18:11 59.72238 17.16469 19788 ft 290 kts 274°
2026-05-05 18:11 59.72539 17.12511 20443 ft 292 kts 274°
2026-05-05 18:11 59.72843 17.08508 21073 ft 295 kts 274°
2026-05-05 18:12 59.73148 17.04466 21700 ft 298 kts 274°
2026-05-05 18:12 59.73456 17.00381 22322 ft 301 kts 274°
2026-05-05 18:12 59.73765 16.96259 22925 ft 304 kts 274°
2026-05-05 18:12 59.74075 16.92092 23518 ft 307 kts 274°
2026-05-05 18:13 59.74386 16.87884 24017 ft 310 kts 274°
2026-05-05 18:13 59.74700 16.83637 24539 ft 313 kts 274°
2026-05-05 18:13 59.75017 16.79350 25007 ft 316 kts 274°
2026-05-05 18:13 59.75336 16.75022 25482 ft 319 kts 274°
2026-05-05 18:14 59.75655 16.70653 25955 ft 322 kts 274°
2026-05-05 18:14 59.75976 16.66240 26421 ft 325 kts 274°
2026-05-05 18:14 59.76298 16.61786 26878 ft 328 kts 274°
2026-05-05 18:14 59.76619 16.57303 27385 ft 329 kts 274°
2026-05-05 18:15 59.76944 16.52782 27876 ft 332 kts 274°
2026-05-05 18:15 59.77271 16.48231 28337 ft 335 kts 274°
2026-05-05 18:15 59.77596 16.43642 28783 ft 338 kts 274°
2026-05-05 18:15 59.77922 16.39008 29227 ft 341 kts 274°
2026-05-05 18:16 59.78248 16.34327 29649 ft 344 kts 274°
2026-05-05 18:16 59.78577 16.29610 30051 ft 347 kts 274°
2026-05-05 18:16 59.78908 16.24840 30382 ft 350 kts 274°
2026-05-05 18:16 59.79242 16.20028 30697 ft 354 kts 274°
2026-05-05 18:17 59.79579 16.15158 31006 ft 357 kts 274°
2026-05-05 18:17 59.79913 16.10244 31299 ft 361 kts 274°
2026-05-05 18:17 59.80248 16.05282 31605 ft 364 kts 274°
2026-05-05 18:17 59.80583 16.00298 32017 ft 364 kts 274°
2026-05-05 18:18 59.80915 15.95310 32468 ft 365 kts 274°
2026-05-05 18:18 59.81246 15.90314 32882 ft 365 kts 275°
2026-05-05 18:18 59.81578 15.85309 33295 ft 366 kts 275°
2026-05-05 18:18 59.81912 15.80292 33694 ft 367 kts 275°
2026-05-05 18:19 59.82243 15.75263 34044 ft 368 kts 275°
2026-05-05 18:19 59.82571 15.70207 34343 ft 369 kts 275°
2026-05-05 18:19 59.82899 15.65139 34635 ft 371 kts 275°
2026-05-05 18:19 59.83228 15.60035 34911 ft 373 kts 275°
2026-05-05 18:20 59.83557 15.54917 35183 ft 374 kts 275°
2026-05-05 18:20 59.83773 15.51515 35370 ft 375 kts 275°
2026-05-05 18:20 59.84099 15.46354 35593 ft 377 kts 275°
2026-05-05 18:20 59.84421 15.41177 35820 ft 379 kts 274°
2026-05-05 18:21 59.84744 15.35959 35884 ft 383 kts 275°
2026-05-05 18:21 59.85506 15.23595 35886 ft 388 kts 275°
2026-05-05 18:22 59.86162 15.12928 35889 ft 388 kts 275°
2026-05-05 18:22 59.86704 15.03988 35890 ft 389 kts 275°
2026-05-05 18:23 59.87336 14.93311 35887 ft 389 kts 274°
2026-05-05 18:23 59.87958 14.82625 35886 ft 388 kts 274°
2026-05-05 18:24 59.88574 14.71956 35886 ft 388 kts 274°
2026-05-05 18:24 59.89181 14.61262 35902 ft 389 kts 274°
2026-05-05 18:25 59.89780 14.50558 35893 ft 389 kts 274°
2026-05-05 18:25 59.90371 14.39830 35451 ft 390 kts 274°
2026-05-05 18:25 59.90662 14.34536 34982 ft 388 kts 274°
2026-05-05 18:26 59.90958 14.29139 34510 ft 386 kts 274°
2026-05-05 18:26 59.91240 14.23905 34057 ft 385 kts 274°
2026-05-05 18:26 59.91519 14.18607 33543 ft 384 kts 274°
2026-05-05 18:26 59.91795 14.13313 32999 ft 383 kts 274°
2026-05-05 18:27 59.92070 14.08037 32463 ft 382 kts 274°
2026-05-05 18:27 59.92344 14.02764 31941 ft 382 kts 274°
2026-05-05 18:27 59.92618 13.97512 31458 ft 381 kts 274°
2026-05-05 18:27 59.92890 13.92268 30944 ft 380 kts 274°
2026-05-05 18:28 59.93420 13.81836 29915 ft 377 kts 274°
2026-05-05 18:28 59.93680 13.76646 29316 ft 376 kts 274°
2026-05-05 18:28 59.93938 13.71454 28717 ft 376 kts 273°
2026-05-05 18:29 59.94192 13.66255 28142 ft 377 kts 273°
2026-05-05 18:29 59.94446 13.61043 27568 ft 377 kts 273°
2026-05-05 18:29 59.94697 13.55844 27037 ft 378 kts 273°
2026-05-05 18:29 59.94948 13.50626 26515 ft 378 kts 273°
2026-05-05 18:30 59.95196 13.45402 26000 ft 379 kts 273°
2026-05-05 18:30 59.95441 13.40174 25498 ft 377 kts 273°
2026-05-05 18:30 59.95685 13.34981 25005 ft 374 kts 273°
2026-05-05 18:30 59.95926 13.29846 24556 ft 370 kts 274°
2026-05-05 18:31 59.96162 13.24778 24078 ft 365 kts 274°
2026-05-05 18:31 59.96394 13.19764 23607 ft 361 kts 274°
2026-05-05 18:31 59.96619 13.14807 23068 ft 357 kts 274°
2026-05-05 18:31 59.96840 13.09885 22516 ft 355 kts 274°
2026-05-05 18:32 59.97057 13.04981 21968 ft 354 kts 274°
2026-05-05 18:32 59.97271 13.00093 21431 ft 353 kts 274°
2026-05-05 18:32 59.97483 12.95217 20903 ft 352 kts 274°
2026-05-05 18:32 59.97694 12.90354 20383 ft 352 kts 274°
2026-05-05 18:33 59.97904 12.85483 19874 ft 351 kts 274°
2026-05-05 18:33 59.98109 12.80627 19370 ft 351 kts 274°
2026-05-05 18:33 59.98312 12.75768 18880 ft 351 kts 274°
2026-05-05 18:33 59.98558 12.70926 18394 ft 351 kts 278°
2026-05-05 18:34 59.98981 12.66122 17863 ft 350 kts 278°
2026-05-05 18:34 59.99393 12.61394 17292 ft 341 kts 279°
2026-05-05 18:34 59.99790 12.56769 16734 ft 334 kts 279°
2026-05-05 18:34 60.00173 12.52235 16202 ft 328 kts 279°
2026-05-05 18:35 60.00544 12.47797 15654 ft 321 kts 279°
2026-05-05 18:35 60.00791 12.43404 15126 ft 315 kts 276°
2026-05-05 18:35 60.00969 12.39075 14608 ft 311 kts 275°
2026-05-05 18:35 60.01120 12.34781 14105 ft 309 kts 275°
2026-05-05 18:36 60.01260 12.30493 13694 ft 310 kts 275°
2026-05-05 18:36 60.01400 12.26189 13243 ft 310 kts 275°
2026-05-05 18:36 60.01541 12.21894 12795 ft 309 kts 275°
2026-05-05 18:36 60.01683 12.17612 12349 ft 308 kts 275°
2026-05-05 18:37 60.01826 12.13335 11796 ft 306 kts 275°
2026-05-05 18:37 60.01968 12.09122 11191 ft 306 kts 275°
2026-05-05 18:37 60.02110 12.04909 10816 ft 300 kts 274°
2026-05-05 18:37 60.02248 12.00774 10556 ft 298 kts 274°
2026-05-05 18:38 60.02385 11.96631 10296 ft 299 kts 274°
2026-05-05 18:38 60.02517 11.92545 10030 ft 290 kts 274°
2026-05-05 18:38 60.02643 11.88596 9866 ft 279 kts 273°
2026-05-05 18:38 60.02761 11.84856 9736 ft 268 kts 273°
2026-05-05 18:39 60.02877 11.81163 9592 ft 265 kts 273°
2026-05-05 18:39 60.02990 11.77487 9456 ft 264 kts 273°
2026-05-05 18:39 60.03102 11.73824 9318 ft 264 kts 273°
2026-05-05 18:39 60.03214 11.70168 9179 ft 263 kts 273°
2026-05-05 18:40 60.03325 11.66519 9040 ft 263 kts 273°
2026-05-05 18:40 60.03434 11.62862 8777 ft 264 kts 273°
2026-05-05 18:40 60.03542 11.59166 8289 ft 267 kts 273°
2026-05-05 18:40 60.03650 11.55474 7810 ft 268 kts 274°
2026-05-05 18:41 60.03757 11.51778 7468 ft 262 kts 274°
2026-05-05 18:41 60.03859 11.48155 7071 ft 259 kts 274°
2026-05-05 18:41 60.03958 11.44613 7006 ft 249 kts 274°
2026-05-05 18:41 60.04055 11.41255 7012 ft 235 kts 274°
2026-05-05 18:42 60.04147 11.38056 6876 ft 227 kts 274°
2026-05-05 18:42 60.04232 11.34935 6499 ft 224 kts 273°
2026-05-05 18:42 60.04265 11.31817 6052 ft 224 kts 271°
2026-05-05 18:42 60.04271 11.28716 5537 ft 222 kts 271°
2026-05-05 18:43 60.04271 11.25640 5050 ft 221 kts 271°
2026-05-05 18:43 60.04272 11.22646 4788 ft 208 kts 271°
2026-05-05 18:43 60.04275 11.19826 4461 ft 200 kts 272°
2026-05-05 18:43 60.04297 11.17076 4209 ft 197 kts 276°
2026-05-05 18:44 60.04591 11.14433 3901 ft 193 kts 291°
2026-05-05 18:44 60.05212 11.12107 3587 ft 187 kts 305°
2026-05-05 18:44 60.06081 11.10211 3311 ft 184 kts 318°
2026-05-05 18:44 60.07142 11.08806 3036 ft 184 kts 331°
2026-05-05 18:45 60.08317 11.07972 2766 ft 174 kts 344°
2026-05-05 18:45 60.09467 11.07573 2512 ft 163 kts 346°
2026-05-05 18:45 60.10569 11.07270 2273 ft 156 kts 353°
2026-05-05 18:45 60.11618 11.07406 2045 ft 147 kts
2026-05-05 18:46 60.12590 11.07913 1822 ft 143 kts 11°
2026-05-05 18:46 60.13534 11.08460 1610 ft 140 kts 11°
2026-05-05 18:46 60.14466 11.08996 1390 ft 139 kts 12°
2026-05-05 18:46 60.15400 11.09525 1191 ft 140 kts 12°
2026-05-05 18:47 60.16336 11.10065 998 ft 140 kts 13°
2026-05-05 18:47 60.17266 11.10598 787 ft 138 kts 13°
2026-05-05 18:47 60.18165 11.11114 684 ft 122 kts 16°
2026-05-05 18:47 60.18840 11.11508 684 ft 78 kts 16°
2026-05-05 18:48 60.19220 11.11698 683 ft 40 kts
2026-05-05 18:48 60.19362 11.11603 682 ft 13 kts 304°
2026-05-05 18:48 60.19374 11.11545 681 ft 0 kts 288°
2026-05-05 18:49 60.19376 11.11533 681 ft 3 kts 288°
2026-05-05 18:49 60.19384 11.11478 681 ft 5 kts 287°
2026-05-05 18:49 60.19396 11.11395 681 ft 9 kts 285°
2026-05-05 18:50 60.19416 11.11253 683 ft 12 kts 286°
2026-05-05 18:50 60.19443 11.11071 683 ft 15 kts 286°
2026-05-05 18:50 60.19475 11.10848 683 ft 18 kts 286°
2026-05-05 18:50 60.19506 11.10627 683 ft 17 kts 285°
2026-05-05 18:51 60.19533 11.10433 684 ft 9 kts 280°
2026-05-05 18:51 60.19482 11.10375 685 ft 8 kts 195°
2026-05-05 18:51 60.19446 11.10355 685 ft 0 kts 195°